Terminal Aerodrome Forecast
Issued by NWS Sioux Falls, SD

Home | Current Version | Previous Version | Text Only | Print | Product List | Glossary Off
Versions: 1 2 3 4 5 6 7 8 9 10 11 12 13 14 15 16 17 18 19 20 21 22 23 24 25 26 27 28 29 30 31 32 33 34 35

000
FTUS43 KFSD 200500
TAFSUX
TAF
KSUX 200522Z 2006/2106 15007KT P6SM SCT200
     FM201300 17010KT P6SM SCT020 SCT200
     FM201700 18015G24KT P6SM SCT035
     FM210030 16008KT P6SM SCT035=

USA.gov is the U.S. government's official web portal to all federal, state and local government web resources and services.